Location: Invercargill
(46.4000°S, 168.3500°E)
Time: 10:51:17
(UTC+12:00)

Cosmos 1953 Rocket - Pass Details

Date: 14 May 2021
Orbit: 604 x 634 km, 82.5° (Epoch: 15 June)

Event Time Altitude Azimuth Distance (km) Brightness Sun altitude
Rises 17:48:00 0° 7° (N) 2,903 7.2 -4.4°
Reaches altitude 10° 17:50:15 10° 12° (NNE) 2,010 6.3 -4.8°
Maximum altitude 17:54:34 50° 86° (E) 816 3.9 -5.5°
Drops below altitude 10° 17:58:58 10° 161° (SSE) 2,054 5.9 -6.2°
Sets 18:01:17 0° 166° (SSE) 2,973 6.7 -6.5°
